Preview of NWS' New Version of Forecast
This preview is not operational and should not be used for support decisions.

Regional Weather Roundup (RWR)

Issued by National Weather Service (NWS)

                            
000
ASUS45 KCYS 182010
RWRWY 

WYOMING REGIONAL WEATHER ROUNDUP
NATIONAL WEATHER SERVICE CHEYENNE WY
200 PM MDT MON MAR 18 2019

NOTE:  "FAIR" INDICATES FEW OR NO CLOUDS BELOW 12,000 FEET
WITH NO SIGNIFICANT WEATHER AND/OR OBSTRUCTIONS TO VISIBILITY.

WYZ001-182100-
YELLOWSTONE NATIONAL PARK
  
CITY           SKY/WX    TMP DP  RH WIND       PRES   REMARKS
LK YELLOWSTONE   N/A     31  15  52 SE6       30.23F WCI  25          
W YELLOWSTONE  NOT AVBL                                               

$$
WYZ002>013-054>058-071-098>099-182100-
NORTHERN WYOMING
  
CITY           SKY/WX    TMP DP  RH WIND       PRES   REMARKS
JACKSON        FAIR      34  17  50 SE5       30.23F WCI  30          
CODY           FAIR      44  20  38 N7        30.23F                  
GREYBULL       FAIR      48  25  40 CALM      30.22F                  
WORLAND        FAIR      46  26  45 NE5       30.23F                  
SHERIDAN       FAIR      44  29  55 NW10      30.21F                  
BUFFALO        CLOUDY    44  25  47 N8        30.20F                  
GILLETTE       FAIR      45  30  55 MISG      30.19F                  
HULETT         FAIR      41  25  52 W7        30.20                   
NEWCASTLE      FAIR      36  25  64 W8        30.22  WCI  29          

$$
WYZ014>020-022>026-101>103-182100-
CENTRAL WYOMING
  
CITY           SKY/WX    TMP DP  RH WIND       PRES   REMARKS
BIG PINEY      FAIR      28  17  63 SE7       30.23F WCI  21          
PINEDALE       FAIR      30  16  55 SE5       30.24  WCI  25          
DUBOIS         FAIR      43  12  28 SE6       30.17                   
LANDER         FAIR      44  23  43 VRB3      30.20F                  
RIVERTON       FAIR      44  21  40 SE3       30.21F                  
CASPER         FAIR      37  25  61 SW9       30.20F WCI  30          
DOUGLAS        FAIR      39  30  70 NW10      30.19F WCI  32          

$$
WYZ021-027>030-104>119-182100-
SOUTHERN WYOMING
  
CITY           SKY/WX    TMP DP  RH WIND       PRES   REMARKS
EVANSTON       FAIR      28  19  69 CALM      30.22F                  
KEMMERER       FAIR      34  18  51 CALM      30.23                   
FORT BRIDGER   CLEAR     27  21  80 W3        30.27F                  
ROCK SPRINGS   FAIR      32  22  66 SE3       30.21F                  
DIXON          FAIR      35  17  47 E7        30.24F WCI  30          
RAWLINS        FAIR      34  21  59 CALM      30.20F                  
SARATOGA       FAIR      32  21  64 CALM      30.20F                  
LARAMIE        FAIR      30  20  66 N13       30.16S WCI  20          
CHEYENNE       FAIR      45  27  49 VRB5      30.14F                  
TORRINGTON     FAIR      43  30  60 S10       30.18F                  
PINE BLUFFS    FAIR      46  28  49 S10       30.16F                  

$$
  

000
ASUS45 KCYS 182010
RWRWY 

WYOMING REGIONAL WEATHER ROUNDUP
NATIONAL WEATHER SERVICE CHEYENNE WY
200 PM MDT MON MAR 18 2019

NOTE:  "FAIR" INDICATES FEW OR NO CLOUDS BELOW 12,000 FEET
WITH NO SIGNIFICANT WEATHER AND/OR OBSTRUCTIONS TO VISIBILITY.

WYZ001-182100-
...YELLOWSTONE NATIONAL PARK...
  
CITY           SKY/WX    TMP DP  RH WIND       PRES   REMARKS
LK YELLOWSTONE   N/A     31  15  52 SE6       30.23F WCI  25          
W YELLOWSTONE  NOT AVBL                                               

$$
WYZ002>013-054>058-071-098>099-182100-
...NORTHERN WYOMING...
  
CITY           SKY/WX    TMP DP  RH WIND       PRES   REMARKS
JACKSON        SUNNY     34  17  50 SE5       30.23F WCI  30          
CODY           SUNNY     44  20  38 N7        30.23F                  
GREYBULL       SUNNY     48  25  40 CALM      30.22F                  
WORLAND        SUNNY     46  26  45 NE5       30.23F                  
SHERIDAN       SUNNY     44  29  55 NW10      30.21F                  
BUFFALO        CLOUDY    44  25  47 N8        30.20F                  
GILLETTE       SUNNY     45  30  55 MISG      30.19F                  
HULETT         FAIR      41  25  52 W7        30.20F                  
NEWCASTLE      FAIR      36  25  64 W8        30.22F WCI  29          

$$
WYZ014>020-022>026-101>103-182100-
...CENTRAL WYOMING...
  
CITY           SKY/WX    TMP DP  RH WIND       PRES   REMARKS
BIG PINEY      SUNNY     28  17  63 SE7       30.23F WCI  21          
PINEDALE       SUNNY     30  16  55 SE5       30.24S WCI  25          
DUBOIS         FAIR      43  12  28 SE6       30.17F                  
LANDER         FAIR      44  23  43 VRB3      30.20F                  
RIVERTON       SUNNY     44  21  40 SE3       30.21F                  
CASPER         SUNNY     37  25  61 SW9       30.20F WCI  30          
DOUGLAS        MOSUNNY   39  30  70 NW10      30.19F WCI  32          

$$
WYZ021-027>030-104>119-182100-
...SOUTHERN WYOMING...
  
CITY           SKY/WX    TMP DP  RH WIND       PRES   REMARKS
EVANSTON       PTSUNNY   28  19  69 CALM      30.22F                  
KEMMERER       SUNNY     34  16  47 CALM      30.23F                  
FORT BRIDGER   SUNNY     27  21  80 W3        30.27S                  
ROCK SPRINGS   MOSUNNY   32  22  66 SE3       30.21F                  
DIXON          FAIR      35  17  47 E7        30.24F WCI  30          
RAWLINS        MOSUNNY   34  21  59 CALM      30.20F                  
SARATOGA       FAIR      32  21  64 CALM      30.20F                  
LARAMIE        MOSUNNY   30  20  66 N13       30.16S WCI  20          
CHEYENNE       MOSUNNY   45  27  49 VRB5      30.14F                  
TORRINGTON     MOSUNNY   43  30  60 S10       30.18F                  
PINE BLUFFS    FAIR      46  28  49 S10       30.16F                  

$$